,,PA_Meas_PMT16A,,PR_Meas_QMR101_102,,RH_Meas_QMH101,,SR_Meas_QMS101,,TA_Meas_QMH101,,GenWind,,GenWind,
time,status,PA,status,PR,status,RH,status,SR,status,TA,status,DirAvg,status,SpdAvg,
2016-05-15, 07:08:04,VALID,917.122,VALID,0,VALID,104,VALID,114.317,VALID,21.1071,VALID,28,VALID,0,
2016-05-15, 07:09:04,VALID,917.116,VALID,0,VALID,104,VALID,109.912,VALID,21.1071,VALID,28,VALID,0,
2016-05-15, 07:11:04,VALID,917.156,VALID,0,VALID,104,VALID,155.252,VALID,21.2827,VALID,28,VALID,0,
2016-05-15, 07:12:04,VALID,917.164,VALID,0,VALID,104,VALID,124.524,VALID,21.2632,VALID,28,VALID,0,
2016-05-15, 07:13:04,VALID,917.15,VALID,0,VALID,104,VALID,141.07,VALID,21.2047,VALID,345,VALID,0,
2016-05-15, 07:14:04,VALID,917.196,VALID,0,VALID,104,VALID,120.119,VALID,21.2242,VALID,345,VALID,0,
2016-05-15, 07:15:04,VALID,917.206,VALID,0,VALID,104,VALID,153.748,VALID,21.2632,VALID,345,VALID,0,
2016-05-15, 07:16:04,VALID,917.214,VALID,0,VALID,104,VALID,136.665,VALID,21.3998,VALID,345,VALID,0,
2016-05-15, 07:17:04,VALID,917.259,VALID,0,VALID,104,VALID,147.087,VALID,21.3998,VALID,344,VALID,0,
2016-05-15, 07:18:04,VALID,917.252,VALID,0,VALID,104,VALID,130.648,VALID,21.4193,VALID,344,VALID,0,
2016-05-15, 07:19:04,VALID,917.283,VALID,0,VALID,104,VALID,145.368,VALID,21.4973,VALID,344,VALID,0,
2016-05-15, 07:20:04,VALID,917.292,VALID,0,VALID,104,VALID,175.774,VALID,21.4778,VALID,344,VALID,0,
2016-05-15, 07:21:04,VALID,917.314,VALID,0,VALID,104,VALID,180.179,VALID,21.4193,VALID,344,VALID,0,
2016-05-15, 07:22:04,VALID,917.336,VALID,0,VALID,104,VALID,158.905,VALID,21.3786,VALID,344,VALID,0,
2016-05-15, 07:23:04,VALID,917.352,VALID,0,VALID,104,VALID,157.079,VALID,21.3998,VALID,344,VALID,0,
2016-05-15, 07:24:04,VALID,917.388,VALID,0,VALID,104,VALID,189.526,VALID,21.3591,VALID,344,VALID,0,
2016-05-15, 07:25:04,VALID,917.409,VALID,0,VALID,104,VALID,177.815,VALID,21.4372,VALID,344,VALID,0,
2016-05-15, 07:26:04,VALID,917.412,VALID,0,VALID,104,VALID,157.724,VALID,21.4372,VALID,344,VALID,0,
2016-05-15, 07:27:04,VALID,917.426,VALID,0,VALID,104,VALID,132.153,VALID,21.3981,VALID,344,VALID,0,
2016-05-15, 07:38:04,VALID,917.516,VALID,0,VALID,104,VALID,114.425,VALID,21.4388,VALID,327,VALID,0,
2016-05-15, 07:39:04,VALID,917.504,VALID,0,VALID,104,VALID,159.443,VALID,21.4583,VALID,324,VALID,0,
2016-05-15, 07:40:04,VALID,917.505,VALID,0,VALID,104,VALID,211.444,VALID,21.4778,VALID,347,VALID,0,
2016-05-15, 07:41:04,VALID,917.513,VALID,0,VALID,104,VALID,193.394,VALID,21.5737,VALID,347,VALID,0,
2016-05-15, 07:42:04,VALID,917.527,VALID,0,VALID,104,VALID,243.139,VALID,21.6713,VALID,351,VALID,0,
2016-05-15, 07:43:04,VALID,917.531,VALID,0,VALID,104,VALID,267.958,VALID,21.7883,VALID,6,VALID,0,
2016-05-15, 07:44:04,VALID,917.58,VALID,0,VALID,104,VALID,224.982,VALID,21.964,VALID,7,VALID,0,
2016-05-15, 07:45:04,VALID,917.575,VALID,0,VALID,104,VALID,260.975,VALID,22.0225,VALID,360,VALID,0,
2016-05-15, 07:46:04,VALID,917.56,VALID,0,VALID,104,VALID,283.322,VALID,21.8274,VALID,294,VALID,0,
2016-05-15, 07:47:04,VALID,917.546,VALID,0,VALID,104,VALID,235.833,VALID,21.8079,VALID,298,VALID,0,
2016-05-15, 07:48:04,VALID,917.529,VALID,0,VALID,104,VALID,298.901,VALID,21.964,VALID,8,VALID,0,
2016-05-15, 07:49:04,VALID,917.543,VALID,0,VALID,104,VALID,300.513,VALID,22.003,VALID,33,VALID,0,
2016-05-15, 07:50:04,VALID,917.511,VALID,0,VALID,104,VALID,375.292,VALID,22.1413,VALID,32,VALID,0,
2016-05-15, 07:51:04,VALID,917.553,VALID,0,VALID,104,VALID,338.332,VALID,22.2567,VALID,19,VALID,0,
2016-05-15, 07:52:04,VALID,917.542,VALID,0,VALID,104,VALID,253.669,VALID,22.3737,VALID,17,VALID,0,
2016-05-15, 07:53:04,VALID,917.525,VALID,0,VALID,104,VALID,251.842,VALID,22.4501,VALID,17,VALID,0,
2016-05-15, 07:54:04,VALID,917.542,VALID,0,VALID,104,VALID,166.964,VALID,22.5494,VALID,17,VALID,0,
2016-05-15, 07:55:04,VALID,917.549,VALID,0,VALID,104,VALID,156.112,VALID,22.4518,VALID,304,VALID,0,
2016-05-15, 07:56:04,VALID,917.537,VALID,0,VALID,104,VALID,143.971,VALID,22.3347,VALID,330,VALID,0,
2016-05-15, 07:57:04,VALID,917.539,VALID,0,VALID,104,VALID,133.872,VALID,22.2159,VALID,336,VALID,0,
2016-05-15, 07:58:04,VALID,917.561,VALID,0,VALID,104,VALID,130.219,VALID,22.0013,VALID,300,VALID,0,
2016-05-15, 07:59:04,VALID,917.57,VALID,0,VALID,104,VALID,136.987,VALID,21.9054,VALID,300,VALID,0,
2016-05-15, 08:00:04,VALID,917.599,VALID,0,VALID,104,VALID,125.276,VALID,21.8469,VALID,300,VALID,0,
2016-05-15, 08:01:04,VALID,917.597,VALID,0,VALID,104,VALID,125.384,VALID,21.8664,VALID,301,VALID,0,
2016-05-15, 08:02:04,VALID,917.584,VALID,0,VALID,104,VALID,127.64,VALID,21.8274,VALID,305,VALID,0,
2016-05-15, 08:03:04,VALID,917.591,VALID,0,VALID,104,VALID,129.359,VALID,21.7298,VALID,300,VALID,0,
2016-05-15, 08:04:04,VALID,917.595,VALID,0,VALID,104,VALID,131.508,VALID,21.7103,VALID,300,VALID,0,
2016-05-15, 08:05:04,VALID,917.628,VALID,0,VALID,104,VALID,133.872,VALID,21.6908,VALID,318,VALID,0,
2016-05-15, 08:06:04,VALID,917.637,VALID,0,VALID,104,VALID,135.268,VALID,21.7103,VALID,314,VALID,0,
2016-05-15, 08:07:04,VALID,917.645,VALID,0,VALID,104,VALID,137.74,VALID,21.6891,VALID,302,VALID,0,
2016-05-15, 08:08:04,VALID,917.621,VALID,0,VALID,104,VALID,139.781,VALID,21.6908,VALID,308,VALID,0,
2016-05-15, 08:09:04,VALID,917.62,VALID,0,VALID,104,VALID,142.897,VALID,21.7103,VALID,303,VALID,0,
2016-05-15, 08:10:04,VALID,917.627,VALID,0,VALID,104,VALID,145.153,VALID,21.7883,INVALID,360,VALID,0,
2016-05-15, 08:11:04,VALID,917.604,VALID,0,VALID,104,VALID,147.302,VALID,21.7883,VALID,341,VALID,0,
2016-05-15, 08:12:04,VALID,917.627,VALID,0,VALID,104,VALID,151.814,VALID,21.8274,VALID,329,VALID,0,
2016-05-15, 08:13:04,VALID,917.646,VALID,0,VALID,104,VALID,154.715,VALID,21.8469,INVALID,360,VALID,0,
2016-05-15, 08:14:04,VALID,917.613,VALID,0,VALID,104,VALID,157.186,VALID,21.8664,VALID,1,VALID,0,
2016-05-15, 08:15:04,VALID,917.629,VALID,0,INVALID,109.198,VALID,160.195,VALID,21.8469,VALID,358,VALID,0,
2016-05-15, 08:16:04,VALID,917.64,VALID,0,INVALID,109.19,VALID,163.74,VALID,21.8859,VALID,351,VALID,0,
2016-05-15, 08:17:04,VALID,917.635,VALID,0,INVALID,109.251,VALID,167.608,VALID,21.8859,VALID,353,VALID,0,
2016-05-15, 08:18:04,VALID,917.645,VALID,0,INVALID,109.305,VALID,171.691,VALID,21.9249,VALID,341,VALID,0,
2016-05-15, 08:19:04,VALID,917.636,VALID,0,INVALID,109.373,VALID,176.096,VALID,21.9249,VALID,298,VALID,0,
2016-05-15, 08:20:04,VALID,917.613,VALID,0,INVALID,109.282,VALID,181.468,VALID,22.0225,VALID,299,VALID,0,
2016-05-15, 08:21:04,VALID,917.605,VALID,0,INVALID,109.35,VALID,189.634,VALID,22.0615,VALID,298,VALID,0,
2016-05-15, 08:22:04,VALID,917.605,VALID,0,INVALID,109.548,VALID,191.997,VALID,22.003,VALID,298,VALID,0,
2016-05-15, 08:23:04,VALID,917.584,VALID,0,INVALID,109.663,VALID,196.188,VALID,21.9818,VALID,298,VALID,0,
2016-05-15, 08:24:04,VALID,917.58,VALID,0,INVALID,109.716,VALID,204.138,VALID,21.9818,VALID,298,VALID,0,
2016-05-15, 08:25:04,VALID,917.603,VALID,0,INVALID,109.861,VALID,210.692,VALID,21.9623,VALID,299,VALID,0,
2016-05-15, 08:26:04,VALID,917.555,VALID,0,INVALID,109.983,VALID,224.122,VALID,21.9428,VALID,299,VALID,0,
2016-05-15, 08:27:04,VALID,917.587,VALID,0,INVALID,109.937,VALID,232.503,VALID,21.9818,VALID,299,VALID,0,
2016-05-15, 08:28:04,VALID,917.581,VALID,0,INVALID,109.846,VALID,227.883,VALID,22.1184,VALID,301,VALID,0,
2016-05-15, 08:29:04,VALID,917.599,VALID,0,INVALID,109.975,VALID,229.172,VALID,22.2159,INVALID,360,VALID,0,
2016-05-15, 08:30:04,VALID,917.612,VALID,0,INVALID,110.196,VALID,227.99,VALID,22.294,VALID,353,VALID,0,
2016-05-15, 08:31:04,VALID,917.659,VALID,0,INVALID,110.387,VALID,243.032,VALID,22.372,VALID,353,VALID,0,
2016-05-15, 08:32:04,VALID,917.705,VALID,0,INVALID,110.433,VALID,265.38,VALID,22.4696,VALID,353,VALID,0,
2016-05-15, 08:33:04,VALID,917.683,VALID,0,INVALID,110.57,VALID,330.596,VALID,22.5477,VALID,352,VALID,0,
2016-05-15, 08:34:04,VALID,917.696,VALID,0,INVALID,110.738,VALID,355.738,VALID,22.5672,VALID,320,VALID,0,
2016-05-15, 08:35:04,VALID,917.717,VALID,0,INVALID,110.722,VALID,446.311,VALID,22.7233,VALID,321,VALID,0,
2016-05-15, 08:36:04,VALID,917.741,VALID,0,INVALID,110.578,VALID,457.484,VALID,22.9575,VALID,321,VALID,0,
2016-05-15, 08:37:04,VALID,917.734,VALID,0,INVALID,110.57,VALID,556.545,VALID,23.2112,VALID,322,VALID,0,
2016-05-15, 08:38:04,VALID,917.791,VALID,0,INVALID,111.02,VALID,565.678,VALID,23.3283,VALID,318,VALID,0,
2016-05-15, 08:39:04,VALID,917.774,VALID,0,INVALID,111.805,VALID,535.164,VALID,23.3869,VALID,299,VALID,0.7625,
2016-05-15, 08:40:04,VALID,917.807,VALID,0,INVALID,112.331,VALID,544.834,VALID,23.4082,VALID,244,VALID,0.229297,
2016-05-15, 08:41:04,VALID,917.798,VALID,0,INVALID,112.811,VALID,608.654,VALID,23.4259,VALID,249,VALID,0,
2016-05-15, 08:42:04,VALID,917.835,VALID,0,INVALID,113.208,VALID,259.9,VALID,23.4259,VALID,284,VALID,0,
2016-05-15, 08:43:04,VALID,917.862,VALID,0,INVALID,113.131,VALID,296.323,VALID,23.465,VALID,290,VALID,0,
2016-05-15, 08:44:04,VALID,917.857,VALID,0,INVALID,112.758,VALID,605.861,VALID,23.4454,VALID,283,VALID,0,
2016-05-15, 08:45:04,VALID,917.883,VALID,0,INVALID,111.797,VALID,422.781,VALID,23.3851,VALID,288,VALID,0,
2016-05-15, 08:46:04,VALID,917.864,VALID,0,INVALID,111.698,VALID,441.798,VALID,23.504,VALID,12,VALID,0,
2016-05-15, 08:47:04,VALID,917.9,VALID,0,INVALID,111.531,VALID,463.286,VALID,23.6602,VALID,360,VALID,0.221484,
2016-05-15, 08:48:04,VALID,917.914,VALID,0,INVALID,110.966,VALID,584.695,VALID,23.795,VALID,14,VALID,0.313281,
2016-05-15, 08:49:04,VALID,917.917,VALID,0,INVALID,109.221,VALID,297.827,VALID,23.834,VALID,294,VALID,0.574219,
2016-05-15, 08:50:04,VALID,917.926,VALID,0,VALID,104,VALID,605.861,VALID,23.756,VALID,269,VALID,0,
2016-05-15, 08:51:04,VALID,917.914,VALID,0,VALID,104,VALID,223.907,VALID,23.7578,VALID,279,VALID,0.365625,
2016-05-15, 08:52:04,VALID,917.93,VALID,0,VALID,104,VALID,569.76,VALID,23.7169,VALID,11,VALID,0,
2016-05-15, 08:53:04,VALID,917.909,VALID,0,VALID,104,VALID,556.438,VALID,23.6584,VALID,284,VALID,0,
2016-05-15, 08:54:04,VALID,917.932,VALID,0,VALID,104,VALID,514.536,VALID,23.6779,VALID,2,VALID,0.757422,
2016-05-15, 08:55:04,VALID,917.915,VALID,0,VALID,104,VALID,357.349,VALID,23.7151,VALID,299,VALID,0.222266,
2016-05-15, 08:56:04,VALID,917.908,VALID,0,VALID,104,VALID,244.321,VALID,23.8731,VALID,330,VALID,0.439844,
2016-05-15, 08:57:04,VALID,917.927,VALID,0,VALID,104,VALID,528.181,VALID,24.0488,VALID,273,VALID,0.205078,
2016-05-15, 08:58:04,VALID,917.933,VALID,0,VALID,104,VALID,287.942,VALID,24.125,VALID,351,VALID,0.155469,
2016-05-15, 08:59:04,VALID,917.953,VALID,0,VALID,104,VALID,374.97,VALID,24.2226,VALID,358,VALID,0,
2016-05-15, 09:00:04,VALID,917.969,VALID,0,VALID,104,VALID,662.16,VALID,24.2617,VALID,324,VALID,0,
2016-05-15, 09:01:04,VALID,917.975,VALID,0,VALID,104,VALID,641.853,VALID,24.2812,VALID,283,VALID,0,
2016-05-15, 09:02:04,VALID,918.012,VALID,0,VALID,104,VALID,652.49,VALID,24.3026,VALID,294,VALID,0,
2016-05-15, 09:03:04,VALID,918.013,VALID,0,VALID,103.823,VALID,676.772,VALID,24.2245,VALID,288,VALID,0,
2016-05-15, 09:04:04,VALID,918.015,VALID,0,VALID,104,VALID,704.277,VALID,24.2421,VALID,305,VALID,0,
2016-05-15, 09:05:04,VALID,918.032,VALID,0,VALID,98.7995,VALID,696.648,VALID,24.2421,VALID,305,VALID,0,
2016-05-15, 09:06:04,VALID,918.112,VALID,0,VALID,95.0945,VALID,673.119,VALID,24.1659,VALID,295,VALID,0,
2016-05-15, 09:07:04,VALID,918.084,VALID,0,VALID,103.435,VALID,448.03,VALID,23.9884,VALID,275,VALID,0,
2016-05-15, 09:08:04,VALID,918.094,VALID,0,VALID,104,VALID,551.818,VALID,24.0683,VALID,351,VALID,0,
2016-05-15, 09:09:04,VALID,918.143,VALID,0,VALID,104,VALID,259.363,VALID,24.244,VALID,345,VALID,0,
2016-05-15, 09:10:04,VALID,918.194,VALID,0,VALID,95.4909,VALID,219.825,VALID,24.2226,VALID,298,VALID,0,
2016-05-15, 09:11:04,VALID,918.247,VALID,0,VALID,99.9125,VALID,242.065,VALID,24.0256,VALID,296,VALID,0,
2016-05-15, 09:12:04,VALID,918.261,VALID,0,VALID,104,VALID,263.446,VALID,24.0274,VALID,304,VALID,0,
2016-05-15, 09:13:04,VALID,918.259,VALID,0,VALID,104,VALID,309.108,VALID,24.125,VALID,318,VALID,0,
2016-05-15, 09:14:04,VALID,918.246,VALID,0,VALID,104,VALID,330.919,VALID,24.2617,VALID,8,VALID,0,
2016-05-15, 09:15:04,VALID,918.239,VALID,0,VALID,104,VALID,358.531,VALID,24.4374,VALID,2,VALID,0,
2016-05-15, 09:16:04,VALID,918.217,VALID,0,VALID,100.271,VALID,457.807,VALID,24.4978,VALID,289,VALID,0,
2016-05-15, 09:17:04,VALID,918.221,VALID,0,VALID,92.3501,VALID,415.905,VALID,24.5759,VALID,299,VALID,0.209375,
2016-05-15, 09:18:04,VALID,918.211,VALID,0,VALID,98.2125,VALID,447.922,VALID,24.535,VALID,278,VALID,0,
2016-05-15, 09:19:04,VALID,918.175,VALID,0,VALID,97.8923,VALID,356.597,VALID,24.5173,VALID,290,VALID,0,
2016-05-15, 09:20:04,VALID,918.188,VALID,0,VALID,101.475,VALID,337.258,VALID,24.5368,VALID,287,VALID,0,
2016-05-15, 09:21:04,VALID,918.175,VALID,0,VALID,100.164,VALID,359.283,VALID,24.5564,VALID,268,VALID,0,
2016-05-15, 09:22:04,VALID,918.165,VALID,0,VALID,95.5367,VALID,481.121,VALID,24.5564,VALID,270,VALID,0,
2016-05-15, 09:23:04,VALID,918.209,VALID,0,VALID,100.05,VALID,628.316,VALID,24.574,VALID,269,VALID,0,
2016-05-15, 09:24:04,VALID,918.192,VALID,0,VALID,95.8797,VALID,426.219,VALID,24.6345,VALID,267,VALID,0,
2016-05-15, 09:25:04,VALID,918.19,VALID,0,VALID,93.8976,VALID,362.614,VALID,24.6149,VALID,271,VALID,0,
2016-05-15, 09:26:04,VALID,918.196,VALID,0,VALID,92.0527,VALID,418.054,VALID,24.6131,VALID,295,VALID,0,
2016-05-15, 09:27:04,VALID,918.166,VALID,0,VALID,96.2533,VALID,422.888,VALID,24.6131,VALID,278,VALID,0,
2016-05-15, 09:28:04,VALID,918.158,VALID,0,VALID,100.804,VALID,415.69,VALID,24.6345,VALID,264,VALID,0,
2016-05-15, 09:29:04,VALID,918.146,VALID,0,VALID,100.294,VALID,474.675,VALID,24.7302,VALID,268,VALID,0,
2016-05-15, 09:30:04,VALID,918.169,VALID,0,VALID,101.224,VALID,360.358,VALID,24.8864,VALID,10,VALID,0,
2016-05-15, 09:31:04,VALID,918.141,VALID,0,VALID,87.5321,VALID,335.216,VALID,25.0621,VALID,313,VALID,0,
2016-05-15, 09:32:04,VALID,918.145,VALID,0,VALID,85.3899,VALID,320.282,VALID,25.0621,VALID,302,VALID,0,
2016-05-15, 09:33:04,VALID,918.137,VALID,0,VALID,92.0146,VALID,325.547,VALID,25.1207,VALID,302,VALID,0,
2016-05-15, 09:34:04,VALID,918.14,VALID,0,VALID,94.8124,VALID,328.985,VALID,25.2769,VALID,325,VALID,0,
2016-05-15, 09:35:04,VALID,918.176,VALID,0,VALID,86.785,VALID,348.754,VALID,25.4527,VALID,325,VALID,0,
2016-05-15, 09:36:04,VALID,918.163,VALID,0,VALID,79.3903,VALID,512.924,VALID,25.3941,VALID,299,VALID,0,
2016-05-15, 09:37:04,VALID,918.167,VALID,0,VALID,78.9252,VALID,529.685,VALID,25.1598,VALID,301,VALID,0,
2016-05-15, 09:38:04,VALID,918.188,VALID,0,VALID,81.8221,VALID,503.254,VALID,24.984,VALID,301,VALID,0,
2016-05-15, 09:39:04,VALID,918.167,VALID,0,VALID,79.4894,VALID,510.023,VALID,24.8864,VALID,301,VALID,0,
2016-05-15, 09:40:04,VALID,918.203,VALID,0,VALID,81.3876,VALID,682.896,VALID,24.8278,VALID,277,VALID,0,
2016-05-15, 09:41:04,VALID,918.165,VALID,0,VALID,81.5401,VALID,547.95,VALID,24.9255,VALID,297,VALID,0,
2016-05-15, 09:42:04,VALID,918.149,VALID,0,VALID,86.6935,VALID,460.385,VALID,25.1188,VALID,313,VALID,0,
2016-05-15, 09:43:04,VALID,918.15,VALID,0,VALID,81.1741,VALID,615.423,VALID,25.3531,VALID,231,VALID,0,
2016-05-15, 09:44:04,VALID,918.132,VALID,0,VALID,80.1755,VALID,369.705,VALID,25.3355,VALID,250,VALID,0,
2016-05-15, 09:45:04,VALID,918.159,VALID,0,VALID,80.2898,VALID,449.641,VALID,25.2555,VALID,251,VALID,0,
2016-05-15, 09:46:04,VALID,918.153,VALID,0,VALID,79.1539,VALID,301.05,VALID,25.1012,VALID,252,VALID,0,
2016-05-15, 09:47:04,VALID,918.185,VALID,0,VALID,80.0382,VALID,236.156,VALID,24.8845,VALID,251,VALID,0,
2016-05-15, 09:48:04,VALID,918.186,VALID,0,VALID,85.6872,VALID,214.667,VALID,24.7693,VALID,248,VALID,0,
2016-05-15, 09:49:04,VALID,918.221,VALID,0,VALID,84.7953,VALID,203.816,VALID,24.6698,VALID,248,VALID,0,
2016-05-15, 09:50:04,VALID,918.186,VALID,0,VALID,97.3891,VALID,194.683,VALID,24.7088,VALID,253,VALID,0,
2016-05-15, 09:51:04,VALID,918.229,VALID,0,VALID,96.8021,VALID,180.179,VALID,24.8474,VALID,306,VALID,0,
2016-05-15, 09:52:04,VALID,918.202,VALID,0,VALID,99.9049,VALID,168.038,VALID,24.904,VALID,316,VALID,0,
2016-05-15, 09:53:04,VALID,918.172,VALID,0,VALID,94.4389,VALID,182.005,VALID,24.9236,VALID,316,VALID,0,
2016-05-15, 09:54:04,VALID,918.155,VALID,0,VALID,99.2188,VALID,165.567,VALID,25.0017,VALID,316,VALID,0,
2016-05-15, 09:55:04,VALID,918.132,VALID,0,VALID,96.3142,VALID,146.12,VALID,25.1188,VALID,316,VALID,0,
2016-05-15, 09:56:04,VALID,918.143,VALID,0,VALID,84.7571,VALID,156.219,VALID,25.1774,VALID,327,VALID,0,
2016-05-15, 09:57:04,VALID,918.137,VALID,0,VALID,92.5178,VALID,179.964,VALID,25.1383,VALID,27,VALID,0,
2016-05-15, 09:58:04,VALID,918.127,VALID,0,VALID,95.3461,VALID,198.659,VALID,25.0602,VALID,12,VALID,0,
2016-05-15, 09:59:04,VALID,918.096,VALID,0,VALID,98.9138,VALID,212.626,VALID,25.0017,VALID,36,VALID,0,
2016-05-15, 10:00:04,VALID,918.101,VALID,0,VALID,99.5161,VALID,430.624,VALID,25.0017,VALID,25,VALID,0,
2016-05-15, 10:01:04,VALID,918.065,VALID,0,VALID,101.369,VALID,738.013,VALID,25.1207,VALID,27,VALID,0,
2016-05-15, 10:02:04,VALID,918.033,VALID,0,VALID,100.629,VALID,624.878,VALID,25.3746,VALID,27,VALID,0,
2016-05-15, 10:03:04,VALID,918.031,VALID,0,VALID,99.4627,VALID,660.656,VALID,25.607,VALID,41,VALID,0,
2016-05-15, 10:04:04,VALID,918.025,VALID,0,VALID,85.3213,VALID,686.871,VALID,25.8413,VALID,328,VALID,0,
2016-05-15, 10:05:04,VALID,918.022,VALID,0,VALID,83.8957,VALID,692.136,VALID,26.0366,VALID,344,VALID,0,
2016-05-15, 10:06:04,VALID,918.022,VALID,0,VALID,81.8069,VALID,711.046,VALID,26.2124,VALID,11,VALID,0,
2016-05-15, 10:07:04,VALID,918.077,VALID,0,VALID,79.3064,VALID,740.27,VALID,26.3511,VALID,60,VALID,0,
2016-05-15, 10:08:04,VALID,918.094,VALID,0,VALID,79.9391,VALID,738.98,VALID,26.4097,VALID,343,VALID,0,
2016-05-15, 10:09:04,VALID,918.119,VALID,0,VALID,80.3508,VALID,714.054,VALID,26.4663,VALID,41,VALID,0,
2016-05-15, 10:10:04,VALID,918.147,VALID,0,VALID,81.1665,VALID,735.757,VALID,26.6421,VALID,16,VALID,0.275781,
2016-05-15, 10:11:04,VALID,918.111,VALID,0,VALID,77.3472,VALID,732.104,VALID,26.7202,VALID,28,VALID,0.180078,
2016-05-15, 10:12:04,VALID,918.108,VALID,0,VALID,75.9063,VALID,745.964,VALID,26.7398,VALID,33,VALID,1.14531,
2016-05-15, 10:13:04,VALID,918.078,VALID,0,VALID,80.2746,VALID,769.279,VALID,26.6616,VALID,36,VALID,1.05977,
2016-05-15, 10:14:04,VALID,918.08,VALID,0,VALID,76.2875,VALID,790.337,VALID,26.6616,VALID,22,VALID,2.13711,
2016-05-15, 10:15:04,VALID,918.061,VALID,0,VALID,77.6292,VALID,809.999,VALID,26.4663,VALID,13,VALID,1.58633,
2016-05-15, 10:16:04,VALID,918.046,VALID,0,VALID,79.6037,VALID,848.14,VALID,26.31,VALID,5,VALID,0.752344,
2016-05-15, 10:17:04,VALID,918.033,VALID,0,VALID,75.1669,VALID,888.861,VALID,26.3686,VALID,26,VALID,0.728906,
2016-05-15, 10:18:04,VALID,918.051,VALID,0,VALID,79.3064,VALID,942.796,VALID,26.3882,VALID,21,VALID,0,
2016-05-15, 10:19:04,VALID,918.028,VALID,0,VALID,78.0028,VALID,580.397,VALID,26.6421,VALID,348,VALID,0,
2016-05-15, 10:20:04,VALID,918.028,VALID,0,VALID,78.1705,VALID,595.546,VALID,26.9156,VALID,23,VALID,0,
2016-05-15, 10:21:04,VALID,918.058,VALID,0,VALID,75.4413,VALID,382.705,VALID,27.15,VALID,282,VALID,0,
2016-05-15, 10:22:04,VALID,918.032,VALID,0,VALID,75.0297,VALID,356.919,VALID,27.0328,VALID,279,VALID,0,
2016-05-15, 10:23:04,VALID,918.053,VALID,0,VALID,73.8861,VALID,278.273,VALID,27.0544,VALID,304,VALID,0,
2016-05-15, 10:24:04,VALID,918.074,VALID,0,VALID,74.9763,VALID,312.654,VALID,26.9546,VALID,305,VALID,0,
2016-05-15, 10:25:04,VALID,918.036,VALID,0,VALID,74.8924,VALID,325.654,VALID,26.7573,VALID,263,VALID,0,
2016-05-15, 10:26:04,VALID,918.065,VALID,0,VALID,76.7297,VALID,850.504,VALID,26.5619,VALID,265,VALID,0,
2016-05-15, 10:27:04,VALID,918.053,VALID,0,VALID,77.5225,VALID,991.467,VALID,26.564,VALID,293,VALID,0,
2016-05-15, 10:28:04,VALID,918.081,VALID,0,VALID,77.4463,VALID,863.397,VALID,26.6596,VALID,349,VALID,0,
2016-05-15, 10:29:04,VALID,918.067,VALID,0,VALID,76.3409,VALID,1026.82,VALID,27.0132,VALID,335,VALID,0,
2016-05-15, 10:30:04,VALID,918.047,VALID,0,VALID,73.2153,VALID,672.904,VALID,27.1479,VALID,305,VALID,0,
2016-05-15, 10:31:04,VALID,918.037,VALID,0,VALID,74.8543,VALID,546.875,VALID,27.3649,VALID,303,VALID,0.636328,
2016-05-15, 10:32:04,VALID,917.999,VALID,0,VALID,70.0516,VALID,613.811,VALID,27.2672,VALID,16,VALID,0.187109,
2016-05-15, 10:33:04,VALID,918.004,VALID,0,VALID,68.9004,VALID,610.266,VALID,26.894,VALID,16,VALID,0,
2016-05-15, 10:34:04,VALID,917.994,VALID,0,VALID,73.0018,VALID,666.028,VALID,26.7377,VALID,16,VALID,0,
2016-05-15, 10:35:04,VALID,917.961,VALID,0,VALID,73.6041,VALID,929.366,VALID,26.7768,VALID,35,VALID,0,
2016-05-15, 10:36:04,VALID,917.975,VALID,0,VALID,71.2179,VALID,551.603,VALID,26.894,VALID,312,VALID,0.344141,
2016-05-15, 10:37:04,VALID,917.95,VALID,0,VALID,71.3933,VALID,835.033,VALID,26.7768,VALID,274,VALID,0.169141,
2016-05-15, 10:38:04,VALID,917.913,VALID,0,VALID,72.2471,VALID,569.331,VALID,26.7593,VALID,252,VALID,0,
2016-05-15, 10:39:04,VALID,917.945,VALID,0,VALID,75.5252,VALID,530.974,VALID,26.857,VALID,12,VALID,0.0121094,
2016-05-15, 10:40:04,VALID,917.918,VALID,0,VALID,72.3005,VALID,491.973,VALID,27.0503,VALID,12,VALID,0,
2016-05-15, 10:41:04,VALID,917.885,VALID,0,VALID,71.0884,VALID,490.147,VALID,27.15,VALID,36,VALID,0,
2016-05-15, 10:42:04,VALID,917.849,VALID,0,VALID,72.6664,VALID,485.204,VALID,27.2672,VALID,11,VALID,0,
2016-05-15, 10:43:04,VALID,917.86,VALID,0,VALID,72.148,VALID,483.055,VALID,27.3454,VALID,315,VALID,0,
2016-05-15, 10:44:04,VALID,917.87,VALID,0,VALID,72.857,VALID,515.18,VALID,27.2672,VALID,342,VALID,0,
2016-05-15, 10:45:04,VALID,917.854,VALID,0,VALID,70.3489,VALID,503.362,VALID,27.3063,VALID,21,VALID,0,
2016-05-15, 10:46:04,VALID,917.86,VALID,0,VALID,70.8368,VALID,444.484,VALID,27.3433,VALID,299,VALID,0,
2016-05-15, 10:47:04,VALID,917.847,VALID,0,VALID,72.0108,VALID,391.193,VALID,27.1695,VALID,275,VALID,0,
2016-05-15, 10:48:04,VALID,917.817,VALID,0,VALID,73.3068,VALID,336.613,VALID,27.0132,VALID,275,VALID,0,
2016-05-15, 10:49:04,VALID,917.842,VALID,0,VALID,73.627,VALID,296.645,VALID,26.5619,VALID,262,VALID,0,
2016-05-15, 10:50:04,VALID,917.836,VALID,0,VALID,77.2862,VALID,268.925,VALID,26.31,VALID,263,VALID,0,
2016-05-15, 10:51:04,VALID,917.824,VALID,0,VALID,78.2467,VALID,258.611,VALID,26.2885,VALID,263,VALID,0,
2016-05-15, 10:52:04,VALID,917.836,VALID,0,VALID,76.501,VALID,259.9,VALID,26.31,VALID,262,VALID,0,
2016-05-15, 10:53:04,VALID,917.845,VALID,0,VALID,76.5162,VALID,284.719,VALID,26.2514,VALID,263,VALID,0,
2016-05-15, 10:54:04,VALID,917.862,VALID,0,VALID,76.3104,VALID,267.743,VALID,26.2885,VALID,288,VALID,0,
2016-05-15, 10:55:04,VALID,917.841,VALID,0,VALID,75.1059,VALID,267.851,VALID,26.3882,VALID,324,VALID,0,
2016-05-15, 10:56:04,VALID,917.834,VALID,0,VALID,74.2902,VALID,289.446,VALID,26.4077,VALID,322,VALID,0,
2016-05-15, 10:57:04,VALID,917.863,VALID,0,VALID,75.5176,VALID,325.439,VALID,26.5054,VALID,323,VALID,0,
2016-05-15, 10:58:04,VALID,917.892,VALID,0,VALID,76.2647,VALID,327.803,VALID,26.7007,VALID,346,VALID,0,
2016-05-15, 10:59:04,VALID,917.857,VALID,0,VALID,73.787,VALID,394.954,VALID,26.896,INVALID,360,VALID,0,
2016-05-15, 11:00:04,VALID,917.879,VALID,0,VALID,73.8633,VALID,357.027,VALID,27.0503,VALID,346,VALID,0,
2016-05-15, 11:01:04,VALID,917.857,VALID,0,VALID,73.2839,VALID,365.085,VALID,27.1675,VALID,353,VALID,0,
2016-05-15, 11:02:04,VALID,917.809,VALID,0,VALID,73.5812,VALID,393.02,VALID,27.2868,VALID,26,VALID,0,
2016-05-15, 11:03:04,VALID,917.809,VALID,0,VALID,71.6982,VALID,433.31,VALID,27.3454,VALID,256,VALID,0,
2016-05-15, 11:04:04,VALID,917.761,VALID,0,VALID,73.8938,VALID,471.559,VALID,27.2672,VALID,18,VALID,0,
2016-05-15, 11:05:04,VALID,917.758,VALID,0,VALID,73.9548,VALID,482.411,VALID,27.3042,INVALID,360,VALID,0,
2016-05-15, 11:06:04,VALID,917.734,VALID,0,VALID,72.6283,VALID,455.55,VALID,27.4431,VALID,354,VALID,0,